Time,TemperatureF,DewpointF,PressureIn,WindDirection,WindDirectionDegrees,WindSpeedMPH,WindSpeedGustMPH,Humidity,HourlyPrecipIn,Conditions,Clouds,dailyrainin,SoftwareType,DateUTC
2013-07-17 00:01:00,72.0,65.1,30.32,NNE,25,0.0,0.0,79,0.00,CLR,CLR,0.00,WeatherDisplay:10.34,2013-07-17 04:01:00,
2013-07-17 00:02:00,72.0,65.1,30.32,NNE,25,0.0,0.0,79,0.00,CLR,CLR,0.00,WeatherDisplay:10.34,2013-07-17 04:02:00,
2013-07-17 00:03:00,72.0,65.1,30.32,NNE,26,0.0,0.0,79,0.00,CLR,CLR,0.00,WeatherDisplay:10.34,2013-07-17 04:03:00,
2013-07-17 00:04:00,72.0,65.1,30.32,NNE,25,0.0,0.0,79,0.00,CLR,CLR,0.00,WeatherDisplay:10.34,2013-07-17 04:04:00,
2013-07-17 00:09:00,72.0,65.1,30.32,NNE,33,0.0,0.0,79,0.00,CLR,CLR,0.00,WeatherDisplay:10.34,2013-07-17 04:09:00,
2013-07-17 00:13:00,71.8,64.9,30.32,NNE,30,0.0,0.0,79,0.00,CLR,CLR,0.00,WeatherDisplay:10.34,2013-07-17 04:13:00,
2013-07-17 00:18:00,71.6,64.7,30.32,NNE,30,0.0,0.0,79,0.00,CLR,CLR,0.00,WeatherDisplay:10.34,2013-07-17 04:18:00,
2013-07-17 00:23:00,71.4,64.6,30.32,NNE,30,0.0,0.0,79,0.00,CLR,CLR,0.00,WeatherDisplay:10.34,2013-07-17 04:23:00,
2013-07-17 00:28:00,71.4,64.6,30.32,NNE,29,0.0,0.0,79,0.00,CLR,CLR,0.00,WeatherDisplay:10.34,2013-07-17 04:28:00,
2013-07-17 00:33:00,71.2,64.8,30.32,NNE,24,0.0,0.0,80,0.00,CLR,CLR,0.00,WeatherDisplay:10.34,2013-07-17 04:33:00,
2013-07-17 00:38:00,71.2,64.8,30.32,NNE,23,0.0,0.0,80,0.00,CLR,CLR,0.00,WeatherDisplay:10.34,2013-07-17 04:38:00,
2013-07-17 00:43:00,71.1,64.6,30.32,NNE,30,0.0,0.0,80,0.00,CLR,CLR,0.00,WeatherDisplay:10.34,2013-07-17 04:43:00,
2013-07-17 00:48:00,71.1,64.6,30.32,NNE,30,0.0,0.0,80,0.00,CLR,CLR,0.00,WeatherDisplay:10.34,2013-07-17 04:48:00,
2013-07-17 00:53:00,71.1,64.6,30.32,NNE,25,0.0,0.0,80,0.00,CLR,CLR,0.00,WeatherDisplay:10.34,2013-07-17 04:53:00,
2013-07-17 00:56:00,70.9,64.0,30.32,NNE,25,0.0,0.0,79,0.00,CLR,CLR,0.00,WeatherDisplay:10.34,2013-07-17 04:56:00,
2013-07-17 00:59:00,70.9,64.0,30.32,NNE,25,0.0,0.0,79,0.00,CLR,CLR,0.00,WeatherDisplay:10.34,2013-07-17 04:59:00,
2013-07-17 01:04:00,70.7,63.5,30.32,NNE,25,0.0,0.0,78,0.00,CLR,CLR,0.00,WeatherDisplay:10.34,2013-07-17 05:04:00,
2013-07-17 01:09:00,70.7,63.5,30.32,NNE,27,0.0,0.0,78,0.00,CLR,CLR,0.00,WeatherDisplay:10.34,2013-07-17 05:09:00,
2013-07-17 01:14:00,70.7,63.5,30.32,NNE,25,0.0,0.0,78,0.00,CLR,CLR,0.00,WeatherDisplay:10.34,2013-07-17 05:14:00,
2013-07-17 01:19:00,70.5,63.0,30.32,NNE,25,0.0,0.0,77,0.00,CLR,CLR,0.00,WeatherDisplay:10.34,2013-07-17 05:19:00,
2013-07-17 01:24:00,70.5,63.0,30.32,NNE,27,0.0,0.0,77,0.00,CLR,CLR,0.00,WeatherDisplay:10.34,2013-07-17 05:24:00,
2013-07-17 01:29:00,70.5,63.0,30.32,NNE,26,0.0,0.0,77,0.00,CLR,CLR,0.00,WeatherDisplay:10.34,2013-07-17 05:29:00,
2013-07-17 01:34:00,70.3,62.4,30.32,NNE,30,0.0,0.0,76,0.00,CLR,CLR,0.00,WeatherDisplay:10.34,2013-07-17 05:34:00,
2013-07-17 01:39:00,70.3,62.4,30.32,NNE,30,0.0,0.0,76,0.00,CLR,CLR,0.00,WeatherDisplay:10.34,2013-07-17 05:39:00,
2013-07-17 01:44:00,70.3,62.0,30.32,NNE,24,0.0,0.0,75,0.00,CLR,CLR,0.00,WeatherDisplay:10.34,2013-07-17 05:44:00,
2013-07-17 01:49:00,70.2,61.9,30.32,NNE,24,0.0,0.0,75,0.00,CLR,CLR,0.00,WeatherDisplay:10.34,2013-07-17 05:49:00,
2013-07-17 01:54:00,70.2,61.5,30.32,NNE,24,0.0,0.0,74,0.00,CLR,CLR,0.00,WeatherDisplay:10.34,2013-07-17 05:54:00,
2013-07-17 01:59:00,70.2,61.5,30.32,NNE,24,0.0,0.0,74,0.00,CLR,CLR,0.00,WeatherDisplay:10.34,2013-07-17 05:59:00,
2013-07-17 02:04:00,70.0,60.9,30.32,NNE,24,0.0,0.0,73,0.00,CLR,CLR,0.00,WeatherDisplay:10.34,2013-07-17 06:04:00,
2013-07-17 02:09:00,70.0,60.9,30.32,NNE,25,0.0,0.0,73,0.00,CLR,CLR,0.00,WeatherDisplay:10.34,2013-07-17 06:09:00,
2013-07-17 02:14:00,69.8,60.4,30.32,NNE,25,0.0,0.0,72,0.00,CLR,CLR,0.00,WeatherDisplay:10.34,2013-07-17 06:14:00,
2013-07-17 02:19:00,69.8,60.8,30.29,NNE,30,0.0,0.0,73,0.00,CLR,CLR,0.00,WeatherDisplay:10.34,2013-07-17 06:19:00,
2013-07-17 02:24:00,69.8,60.4,30.29,NNE,29,0.0,0.0,72,0.00,CLR,CLR,0.00,WeatherDisplay:10.34,2013-07-17 06:24:00,
2013-07-17 02:29:00,69.6,60.2,30.29,NNE,29,0.0,0.0,72,0.00,CLR,CLR,0.00,WeatherDisplay:10.34,2013-07-17 06:29:00,
2013-07-17 02:34:00,69.6,60.6,30.29,NNE,23,0.0,0.0,73,0.00,CLR,CLR,0.00,WeatherDisplay:10.34,2013-07-17 06:34:00,
2013-07-17 02:39:00,69.6,60.6,30.29,NNE,29,0.0,0.0,73,0.00,CLR,CLR,0.00,WeatherDisplay:10.34,2013-07-17 06:39:00,
2013-07-17 02:44:00,69.6,60.6,30.29,NNE,29,0.0,0.0,73,0.00,CLR,CLR,0.00,WeatherDisplay:10.34,2013-07-17 06:44:00,
2013-07-17 02:49:00,69.6,60.6,30.29,NNE,29,0.0,0.0,73,0.00,CLR,CLR,0.00,WeatherDisplay:10.34,2013-07-17 06:49:00,
2013-07-17 02:54:00,69.4,60.8,30.29,NNE,29,0.0,0.0,74,0.00,CLR,CLR,0.00,WeatherDisplay:10.34,2013-07-17 06:54:00,
2013-07-17 02:59:00,69.4,60.8,30.29,NNE,29,0.0,0.0,74,0.00,CLR,CLR,0.00,WeatherDisplay:10.34,2013-07-17 06:59:00,
2013-07-17 03:04:00,69.3,60.6,30.29,NNE,29,0.0,0.0,74,0.00,CLR,CLR,0.00,WeatherDisplay:10.34,2013-07-17 07:04:00,
2013-07-17 03:09:00,69.3,60.6,30.29,NNE,29,0.0,0.0,74,0.00,CLR,CLR,0.00,WeatherDisplay:10.34,2013-07-17 07:09:00,
2013-07-17 03:14:00,69.3,60.6,30.29,NNE,29,0.0,0.0,74,0.00,CLR,CLR,0.00,WeatherDisplay:10.34,2013-07-17 07:14:00,
2013-07-17 03:19:00,69.3,60.6,30.29,NNE,29,0.0,0.0,74,0.00,CLR,CLR,0.00,WeatherDisplay:10.34,2013-07-17 07:19:00,
2013-07-17 03:24:00,69.3,60.6,30.29,NNE,29,0.0,0.0,74,0.00,CLR,CLR,0.00,WeatherDisplay:10.34,2013-07-17 07:24:00,
2013-07-17 03:29:00,69.1,60.4,30.29,NNE,29,0.0,0.0,74,0.00,CLR,CLR,0.00,WeatherDisplay:10.34,2013-07-17 07:29:00,
2013-07-17 03:34:00,69.1,60.4,30.29,NNE,29,0.0,0.0,74,0.00,CLR,CLR,0.00,WeatherDisplay:10.34,2013-07-17 07:34:00,
2013-07-17 03:39:00,69.1,60.8,30.29,NNE,29,0.0,0.0,75,0.00,CLR,CLR,0.00,WeatherDisplay:10.34,2013-07-17 07:39:00,
2013-07-17 03:44:00,68.9,60.6,30.29,NNE,23,0.0,0.0,75,0.00,CLR,CLR,0.00,WeatherDisplay:10.34,2013-07-17 07:44:00,
2013-07-17 03:49:00,68.9,61.0,30.29,NNE,22,0.0,0.0,76,0.00,CLR,CLR,0.00,WeatherDisplay:10.34,2013-07-17 07:49:00,
2013-07-17 03:54:00,68.9,61.0,30.29,NNE,23,0.0,0.0,76,0.00,CLR,CLR,0.00,WeatherDisplay:10.34,2013-07-17 07:54:00,
2013-07-17 03:59:00,68.9,61.0,30.29,NNE,23,0.0,0.0,76,0.00,CLR,CLR,0.00,WeatherDisplay:10.34,2013-07-17 07:59:00,
2013-07-17 04:04:00,68.9,61.0,30.29,NNE,23,0.0,0.0,76,0.00,BKN,BKN,0.00,WeatherDisplay:10.34,2013-07-17 08:04:00,
2013-07-17 04:09:00,68.9,61.0,30.29,NNE,23,0.0,0.0,76,0.00,BKN,BKN,0.00,WeatherDisplay:10.34,2013-07-17 08:09:00,
2013-07-17 04:14:00,68.9,61.0,30.29,NNE,23,0.0,0.0,76,0.00,BKN,BKN,0.00,WeatherDisplay:10.34,2013-07-17 08:14:00,
2013-07-17 04:19:00,68.7,60.8,30.29,NNE,23,0.0,0.0,76,0.00,BKN,BKN,0.00,WeatherDisplay:10.34,2013-07-17 08:19:00,
2013-07-17 04:24:00,68.7,61.2,30.29,NNE,23,0.0,0.0,77,0.00,BKN,BKN,0.00,WeatherDisplay:10.34,2013-07-17 08:24:00,
2013-07-17 04:29:00,68.7,61.2,30.29,NNE,23,0.0,0.0,77,0.00,BKN,BKN,0.00,WeatherDisplay:10.34,2013-07-17 08:29:00,
2013-07-17 04:34:00,68.7,61.2,30.29,NNE,24,0.0,0.0,77,0.00,BKN,BKN,0.00,WeatherDisplay:10.34,2013-07-17 08:34:00,
2013-07-17 04:39:00,68.7,61.2,30.29,NNE,29,0.0,0.0,77,0.00,BKN,BKN,0.00,WeatherDisplay:10.34,2013-07-17 08:39:00,
2013-07-17 04:44:00,68.7,61.6,30.29,NNE,29,0.0,0.0,78,0.00,BKN,BKN,0.00,WeatherDisplay:10.34,2013-07-17 08:44:00,
2013-07-17 04:49:00,68.5,61.4,30.32,NNE,24,0.0,0.0,78,0.00,BKN,BKN,0.00,WeatherDisplay:10.34,2013-07-17 08:49:00,
2013-07-17 04:54:00,68.5,61.4,30.32,NNE,24,0.0,0.0,78,0.00,BKN,BKN,0.00,WeatherDisplay:10.34,2013-07-17 08:54:00,
2013-07-17 04:59:00,68.5,61.4,30.32,NNE,24,0.0,0.0,78,0.00,BKN,BKN,0.00,WeatherDisplay:10.34,2013-07-17 08:59:00,
2013-07-17 05:04:00,68.5,61.4,30.32,NNE,24,0.0,0.0,78,0.00,CLR,CLR,0.00,WeatherDisplay:10.34,2013-07-17 09:04:00,
2013-07-17 05:09:00,68.5,61.8,30.32,NNE,24,0.0,0.0,79,0.00,CLR,CLR,0.00,WeatherDisplay:10.34,2013-07-17 09:09:00,
2013-07-17 05:14:00,68.5,61.8,30.32,NNE,23,0.0,0.0,79,0.00,CLR,CLR,0.00,WeatherDisplay:10.34,2013-07-17 09:14:00,
2013-07-17 05:19:00,68.5,61.8,30.32,NNE,23,0.0,0.0,79,0.00,CLR,CLR,0.00,WeatherDisplay:10.34,2013-07-17 09:19:00,
2013-07-17 05:24:00,68.4,61.6,30.32,NNE,23,0.0,0.0,79,0.00,CLR,CLR,0.00,WeatherDisplay:10.34,2013-07-17 09:24:00,
2013-07-17 05:30:00,68.4,61.9,30.32,NNE,24,0.0,0.0,80,0.00,CLR,CLR,0.00,WeatherDisplay:10.34,2013-07-17 09:30:00,
2013-07-17 05:35:00,68.4,61.9,30.32,NNE,23,0.0,0.0,80,0.00,CLR,CLR,0.00,WeatherDisplay:10.34,2013-07-17 09:35:00,
2013-07-17 05:40:00,68.4,61.9,30.32,NNE,29,0.0,0.0,80,0.00,CLR,CLR,0.00,WeatherDisplay:10.34,2013-07-17 09:40:00,
2013-07-17 05:45:00,68.4,61.9,30.32,NNE,23,0.0,0.0,80,0.00,CLR,CLR,0.00,WeatherDisplay:10.34,2013-07-17 09:45:00,
2013-07-17 05:50:00,68.4,61.9,30.32,NNE,23,0.0,0.0,80,0.00,CLR,CLR,0.00,WeatherDisplay:10.34,2013-07-17 09:50:00,
2013-07-17 05:55:00,68.4,61.9,30.32,NNE,25,0.0,0.0,80,0.00,CLR,CLR,0.00,WeatherDisplay:10.34,2013-07-17 09:55:00,
2013-07-17 06:00:00,68.4,61.9,30.32,NNE,25,0.0,0.0,80,0.00,CLR,CLR,0.00,WeatherDisplay:10.34,2013-07-17 10:00:00,
2013-07-17 06:05:00,68.4,61.9,30.32,NNE,29,0.0,0.0,80,0.00,CLR,CLR,0.00,WeatherDisplay:10.34,2013-07-17 10:05:00,
2013-07-17 06:11:00,68.5,62.1,30.33,NNE,25,0.0,0.0,80,0.00,CLR,CLR,0.00,WeatherDisplay:10.34,2013-07-17 10:11:00,
2013-07-17 06:16:00,68.5,62.1,30.33,NNE,25,0.0,0.0,80,0.00,CLR,CLR,0.00,WeatherDisplay:10.34,2013-07-17 10:16:00,
2013-07-17 06:21:00,68.5,62.5,30.33,NNE,25,0.0,0.0,81,0.00,CLR,CLR,0.00,WeatherDisplay:10.34,2013-07-17 10:21:00,
2013-07-17 06:26:00,68.5,62.5,30.33,NNE,25,0.0,0.0,81,0.00,CLR,CLR,0.00,WeatherDisplay:10.34,2013-07-17 10:26:00,
2013-07-17 06:31:00,68.5,62.5,30.33,NNE,25,0.0,0.0,81,0.00,CLR,CLR,0.00,WeatherDisplay:10.34,2013-07-17 10:31:00,
2013-07-17 06:36:00,68.7,63.0,30.33,NNE,25,0.0,0.0,82,0.00,CLR,CLR,0.00,WeatherDisplay:10.34,2013-07-17 10:36:00,
2013-07-17 06:41:00,68.7,63.3,30.33,NNE,24,0.0,0.0,83,0.00,CLR,CLR,0.00,WeatherDisplay:10.34,2013-07-17 10:41:00,
2013-07-17 06:46:00,68.9,63.2,30.33,NNE,24,0.0,0.0,82,0.00,CLR,CLR,0.00,WeatherDisplay:10.34,2013-07-17 10:46:00,
2013-07-17 06:51:00,69.1,63.4,30.33,NNE,25,0.0,0.0,82,0.00,CLR,CLR,0.00,WeatherDisplay:10.34,2013-07-17 10:51:00,
2013-07-17 06:56:00,69.3,63.5,30.33,NNE,25,0.0,0.0,82,0.00,CLR,CLR,0.00,WeatherDisplay:10.34,2013-07-17 10:56:00,
2013-07-17 07:01:00,69.4,63.7,30.33,NNE,24,0.0,0.0,82,0.00,CLR,CLR,0.00,WeatherDisplay:10.34,2013-07-17 11:01:00,
2013-07-17 07:06:00,69.6,63.9,30.33,NNE,22,0.0,0.0,82,0.00,CLR,CLR,0.00,WeatherDisplay:10.34,2013-07-17 11:06:00,
2013-07-17 07:11:00,69.8,64.4,30.33,NNE,22,0.0,0.0,83,0.00,CLR,CLR,0.00,WeatherDisplay:10.34,2013-07-17 11:11:00,
2013-07-17 07:16:00,69.8,64.4,30.33,NNE,23,0.0,0.0,83,0.00,CLR,CLR,0.00,WeatherDisplay:10.34,2013-07-17 11:16:00,
2013-07-17 07:21:00,70.0,64.6,30.33,NNE,22,0.0,0.0,83,0.00,CLR,CLR,0.00,WeatherDisplay:10.34,2013-07-17 11:21:00,
2013-07-17 07:26:00,70.3,64.9,30.33,WNW,303,0.0,3.0,83,0.00,CLR,CLR,0.00,WeatherDisplay:10.34,2013-07-17 11:26:00,
2013-07-17 07:31:00,70.5,65.1,30.33,WNW,303,0.0,0.0,83,0.00,CLR,CLR,0.00,WeatherDisplay:10.34,2013-07-17 11:31:00,
2013-07-17 07:36:00,70.9,65.5,30.33,NW,304,0.0,0.0,83,0.00,CLR,CLR,0.00,WeatherDisplay:10.34,2013-07-17 11:36:00,
2013-07-17 07:41:00,71.1,65.3,30.33,NW,304,0.0,3.0,82,0.00,CLR,CLR,0.00,WeatherDisplay:10.34,2013-07-17 11:41:00,
2013-07-17 07:46:00,71.2,65.5,30.33,WNW,302,0.0,2.0,82,0.00,CLR,CLR,0.00,WeatherDisplay:10.34,2013-07-17 11:46:00,
2013-07-17 07:51:00,71.6,65.8,30.33,WNW,288,0.0,2.0,82,0.00,CLR,CLR,0.00,WeatherDisplay:10.34,2013-07-17 11:51:00,
2013-07-17 07:56:00,71.8,66.0,30.33,WSW,248,0.0,5.0,82,0.00,CLR,CLR,0.00,WeatherDisplay:10.34,2013-07-17 11:56:00,
2013-07-17 08:01:00,72.0,65.8,30.33,West,263,0.0,3.0,81,0.00,CLR,CLR,0.00,WeatherDisplay:10.34,2013-07-17 12:01:00,
2013-07-17 08:06:00,72.3,66.2,30.32,West,281,0.0,2.0,81,0.00,CLR,CLR,0.00,WeatherDisplay:10.34,2013-07-17 12:06:00,
2013-07-17 08:11:00,72.5,66.3,30.32,West,269,0.0,0.0,81,0.00,CLR,CLR,0.00,WeatherDisplay:10.34,2013-07-17 12:11:00,
2013-07-17 08:16:00,72.7,66.2,30.32,WSW,252,3.0,6.0,80,0.00,CLR,CLR,0.00,WeatherDisplay:10.34,2013-07-17 12:16:00,
2013-07-17 08:21:00,72.9,66.3,30.32,NW,308,0.0,2.0,80,0.00,CLR,CLR,0.00,WeatherDisplay:10.34,2013-07-17 12:21:00,
2013-07-17 08:26:00,73.0,66.5,30.32,NNW,346,3.0,5.0,80,0.00,CLR,CLR,0.00,WeatherDisplay:10.34,2013-07-17 12:26:00,
2013-07-17 08:31:00,73.4,66.9,30.32,WNW,283,0.0,3.0,80,0.00,CLR,CLR,0.00,WeatherDisplay:10.34,2013-07-17 12:31:00,
2013-07-17 08:36:00,73.8,66.8,30.32,WNW,283,0.0,0.0,79,0.00,CLR,CLR,0.00,WeatherDisplay:10.34,2013-07-17 12:36:00,
2013-07-17 08:41:00,73.9,67.0,30.32,WNW,299,0.0,3.0,79,0.00,CLR,CLR,0.00,WeatherDisplay:10.34,2013-07-17 12:41:00,
2013-07-17 08:46:00,73.9,67.0,30.32,SW,228,0.0,5.0,79,0.00,CLR,CLR,0.00,WeatherDisplay:10.34,2013-07-17 12:46:00,
2013-07-17 08:51:00,74.3,67.0,30.32,WSW,245,3.0,6.0,78,0.00,CLR,CLR,0.00,WeatherDisplay:10.34,2013-07-17 12:51:00,
2013-07-17 08:56:00,74.8,67.5,30.32,WSW,240,4.0,6.0,78,0.00,CLR,CLR,0.00,WeatherDisplay:10.34,2013-07-17 12:56:00,
2013-07-17 09:01:00,75.0,66.9,30.32,South,187,4.0,6.0,76,0.00,CLR,CLR,0.00,WeatherDisplay:10.34,2013-07-17 13:01:00,
2013-07-17 09:06:00,75.2,66.7,30.32,SW,227,5.0,7.0,75,0.00,CLR,CLR,0.00,WeatherDisplay:10.34,2013-07-17 13:06:00,
2013-07-17 09:11:00,75.2,66.3,30.32,WSW,255,4.0,7.0,74,0.00,CLR,CLR,0.00,WeatherDisplay:10.34,2013-07-17 13:11:00,
2013-07-17 09:16:00,75.6,65.5,30.32,WSW,239,4.0,6.0,71,0.00,CLR,CLR,0.00,WeatherDisplay:10.34,2013-07-17 13:16:00,
2013-07-17 09:21:00,76.1,65.6,30.32,South,182,5.0,7.0,70,0.00,CLR,CLR,0.00,WeatherDisplay:10.34,2013-07-17 13:21:00,
2013-07-17 09:26:00,76.3,65.8,30.32,SSW,202,4.0,5.0,70,0.00,CLR,CLR,0.00,WeatherDisplay:10.34,2013-07-17 13:26:00,
2013-07-17 09:31:00,76.3,65.8,30.32,WSW,250,0.0,0.0,70,0.00,CLR,CLR,0.00,WeatherDisplay:10.34,2013-07-17 13:31:00,
2013-07-17 09:37:00,76.3,65.4,30.32,SE,144,0.0,6.0,69,0.00,CLR,CLR,0.00,WeatherDisplay:10.34,2013-07-17 13:37:00,
2013-07-17 09:42:00,76.6,64.9,30.32,SW,228,3.0,7.0,67,0.00,CLR,CLR,0.00,WeatherDisplay:10.34,2013-07-17 13:42:00,
2013-07-17 09:47:00,76.8,63.7,30.29,SW,222,0.0,5.0,64,0.00,CLR,CLR,0.00,WeatherDisplay:10.34,2013-07-17 13:47:00,
2013-07-17 09:52:00,76.8,61.9,30.29,South,176,4.0,7.0,60,0.00,CLR,CLR,0.00,WeatherDisplay:10.34,2013-07-17 13:52:00,
2013-07-17 09:57:00,77.2,60.8,30.29,WNW,294,4.0,7.0,57,0.00,CLR,CLR,0.00,WeatherDisplay:10.34,2013-07-17 13:57:00,
2013-07-17 10:02:00,77.5,59.6,30.29,NNE,14,5.0,9.0,54,0.00,CLR,CLR,0.00,WeatherDisplay:10.34,2013-07-17 14:02:00,
2013-07-17 10:07:00,77.5,58.5,30.29,ESE,111,3.0,3.0,52,0.00,CLR,CLR,0.00,WeatherDisplay:10.34,2013-07-17 14:07:00,
2013-07-17 10:12:00,77.4,59.4,30.29,WSW,248,0.0,6.0,54,0.00,CLR,CLR,0.00,WeatherDisplay:10.34,2013-07-17 14:12:00,
2013-07-17 10:17:00,77.5,59.6,30.29,NW,309,0.0,6.0,54,0.00,CLR,CLR,0.00,WeatherDisplay:10.34,2013-07-17 14:17:00,
2013-07-17 10:22:00,77.9,59.4,30.29,WSW,245,3.0,3.0,53,0.00,CLR,CLR,0.00,WeatherDisplay:10.34,2013-07-17 14:22:00,
2013-07-17 10:27:00,78.3,58.6,30.29,WNW,289,5.0,7.0,51,0.00,CLR,CLR,0.00,WeatherDisplay:10.34,2013-07-17 14:27:00,
2013-07-17 10:32:00,78.6,58.4,30.29,SSW,193,4.0,6.0,50,0.00,CLR,CLR,0.00,WeatherDisplay:10.34,2013-07-17 14:32:00,
2013-07-17 10:37:00,78.6,58.4,30.29,SW,229,4.0,7.0,50,0.00,CLR,CLR,0.00,WeatherDisplay:10.34,2013-07-17 14:37:00,
2013-07-17 10:42:00,78.6,57.3,30.29,NNE,27,4.0,5.0,48,0.00,CLR,CLR,0.00,WeatherDisplay:10.34,2013-07-17 14:42:00,
2013-07-17 10:47:00,79.0,58.2,30.29,WNW,288,4.0,6.0,49,0.00,CLR,CLR,0.00,WeatherDisplay:10.34,2013-07-17 14:47:00,
2013-07-17 10:52:00,79.0,58.2,30.29,NNE,33,0.0,3.0,49,0.00,CLR,CLR,0.00,WeatherDisplay:10.34,2013-07-17 14:52:00,
2013-07-17 10:57:00,79.0,58.2,30.29,WSW,245,4.0,6.0,49,0.00,CLR,CLR,0.00,WeatherDisplay:10.34,2013-07-17 14:57:00,
2013-07-17 11:02:00,79.7,58.3,30.29,NNE,15,3.0,5.0,48,0.00,CLR,CLR,0.00,WeatherDisplay:10.34,2013-07-17 15:02:00,
2013-07-17 11:07:00,80.1,57.4,30.29,South,190,4.0,6.0,46,0.00,CLR,CLR,0.00,WeatherDisplay:10.34,2013-07-17 15:07:00,
2013-07-17 11:12:00,80.2,56.3,30.29,West,265,5.0,6.0,44,0.00,CLR,CLR,0.00,WeatherDisplay:10.34,2013-07-17 15:12:00,
2013-07-17 11:17:00,80.1,56.2,30.29,West,259,3.0,8.0,44,0.00,CLR,CLR,0.00,WeatherDisplay:10.34,2013-07-17 15:17:00,
2013-07-17 11:22:00,80.4,55.9,30.29,West,263,4.0,6.0,43,0.00,CLR,CLR,0.00,WeatherDisplay:10.34,2013-07-17 15:22:00,
2013-07-17 11:27:00,80.2,55.1,30.29,NNW,346,4.0,6.0,42,0.00,CLR,CLR,0.00,WeatherDisplay:10.34,2013-07-17 15:27:00,
2013-07-17 11:32:00,80.2,55.1,30.29,WSW,245,3.0,5.0,42,0.00,CLR,CLR,0.00,WeatherDisplay:10.34,2013-07-17 15:32:00,
2013-07-17 11:37:00,80.4,54.6,30.29,WSW,238,4.0,9.0,41,0.00,CLR,CLR,0.00,WeatherDisplay:10.34,2013-07-17 15:37:00,
2013-07-17 11:42:00,81.0,55.7,30.29,West,268,3.0,6.0,42,0.00,CLR,CLR,0.00,WeatherDisplay:10.34,2013-07-17 15:42:00,
2013-07-17 11:47:00,81.3,55.4,30.29,WSW,257,3.0,7.0,41,0.00,CLR,CLR,0.00,WeatherDisplay:10.34,2013-07-17 15:47:00,
2013-07-17 11:52:00,81.5,55.5,30.29,SSW,203,4.0,6.0,41,0.00,CLR,CLR,0.00,WeatherDisplay:10.34,2013-07-17 15:52:00,
2013-07-17 11:57:00,81.3,55.4,30.29,NNE,31,3.0,5.0,41,0.00,CLR,CLR,0.00,WeatherDisplay:10.34,2013-07-17 15:57:00,
2013-07-17 12:02:00,81.1,55.9,30.29,NNE,28,0.0,3.0,42,0.00,CLR,CLR,0.00,WeatherDisplay:10.34,2013-07-17 16:02:00,
2013-07-17 12:07:00,81.1,55.9,30.29,WNW,282,0.0,5.0,42,0.00,CLR,CLR,0.00,WeatherDisplay:10.34,2013-07-17 16:07:00,
2013-07-17 12:12:00,81.3,57.3,30.29,West,275,4.0,5.0,44,0.00,CLR,CLR,0.00,WeatherDisplay:10.34,2013-07-17 16:12:00,
2013-07-17 12:17:00,82.0,56.7,30.29,North,2,5.0,8.0,42,0.00,CLR,CLR,0.00,WeatherDisplay:10.34,2013-07-17 16:17:00,
2013-07-17 12:22:00,82.2,56.8,30.29,North,6,3.0,5.0,42,0.00,CLR,CLR,0.00,WeatherDisplay:10.34,2013-07-17 16:22:00,
2013-07-17 12:27:00,82.4,57.0,30.29,North,6,4.0,6.0,42,0.00,CLR,CLR,0.00,WeatherDisplay:10.34,2013-07-17 16:27:00,
2013-07-17 12:32:00,82.4,57.7,30.29,SW,224,4.0,6.0,43,0.00,CLR,CLR,0.00,WeatherDisplay:10.34,2013-07-17 16:32:00,
2013-07-17 12:37:00,82.8,57.3,30.29,NNE,23,5.0,8.0,42,0.00,CLR,CLR,0.00,WeatherDisplay:10.34,2013-07-17 16:37:00,
2013-07-17 12:42:00,82.9,58.8,30.29,SW,217,6.0,9.0,44,0.00,CLR,CLR,0.00,WeatherDisplay:10.34,2013-07-17 16:42:00,
2013-07-17 12:47:00,83.1,58.9,30.26,NNW,343,5.0,7.0,44,0.00,CLR,CLR,0.00,WeatherDisplay:10.34,2013-07-17 16:47:00,
2013-07-17 12:52:00,83.5,58.0,30.26,NNE,24,5.0,10.0,42,0.00,CLR,CLR,0.00,WeatherDisplay:10.34,2013-07-17 16:52:00,
2013-07-17 12:57:00,83.7,58.8,30.26,WNW,296,3.0,5.0,43,0.00,CLR,CLR,0.00,WeatherDisplay:10.34,2013-07-17 16:57:00,
2013-07-17 13:02:00,83.7,58.8,30.26,West,262,6.0,9.0,43,0.00,CLR,CLR,0.00,WeatherDisplay:10.34,2013-07-17 17:02:00,
2013-07-17 13:07:00,84.0,58.5,30.26,ENE,61,3.0,7.0,42,0.00,CLR,CLR,0.00,WeatherDisplay:10.34,2013-07-17 17:07:00,
2013-07-17 13:12:00,84.0,58.5,30.26,North,351,4.0,5.0,42,0.00,CLR,CLR,0.00,WeatherDisplay:10.34,2013-07-17 17:12:00,
2013-07-17 13:17:00,83.8,59.0,30.26,SE,126,0.0,2.0,43,0.00,CLR,CLR,0.00,WeatherDisplay:10.34,2013-07-17 17:17:00,
2013-07-17 13:22:00,84.2,59.3,30.26,SW,236,4.0,7.0,43,0.00,CLR,CLR,0.00,WeatherDisplay:10.34,2013-07-17 17:22:00,
2013-07-17 13:27:00,84.4,59.4,30.26,East,94,4.0,9.0,43,0.00,CLR,CLR,0.00,WeatherDisplay:10.34,2013-07-17 17:27:00,
2013-07-17 13:32:00,84.6,58.9,30.26,West,263,3.0,5.0,42,0.00,CLR,CLR,0.00,WeatherDisplay:10.34,2013-07-17 17:32:00,
2013-07-17 13:37:00,84.6,58.9,30.26,WSW,243,5.0,8.0,42,0.00,CLR,CLR,0.00,WeatherDisplay:10.34,2013-07-17 17:37:00,
2013-07-17 13:42:00,84.6,58.3,30.26,NNE,19,3.0,6.0,41,0.00,CLR,CLR,0.00,WeatherDisplay:10.34,2013-07-17 17:42:00,
2013-07-17 13:47:00,84.7,59.1,30.26,SSW,192,4.0,7.0,42,0.00,CLR,CLR,0.00,WeatherDisplay:10.34,2013-07-17 17:47:00,
2013-07-17 13:52:00,85.1,58.8,30.26,NNW,329,4.0,6.0,41,0.00,CLR,CLR,0.00,WeatherDisplay:10.34,2013-07-17 17:52:00,
2013-07-17 13:57:00,85.1,58.8,30.26,NNE,27,3.0,6.0,41,0.00,CLR,CLR,0.00,WeatherDisplay:10.34,2013-07-17 17:57:00,
2013-07-17 14:03:00,85.1,58.8,30.23,West,273,3.0,5.0,41,0.00,CLR,CLR,0.00,WeatherDisplay:10.34,2013-07-17 18:03:00,
2013-07-17 14:08:00,85.3,58.9,30.23,West,266,4.0,7.0,41,0.00,CLR,CLR,0.00,WeatherDisplay:10.34,2013-07-17 18:08:00,
2013-07-17 14:13:00,85.3,58.9,30.23,WNW,293,3.0,6.0,41,0.00,CLR,CLR,0.00,WeatherDisplay:10.34,2013-07-17 18:13:00,
2013-07-17 14:18:00,85.6,60.6,30.23,WSW,241,4.0,6.0,43,0.00,CLR,CLR,0.00,WeatherDisplay:10.34,2013-07-17 18:18:00,
2013-07-17 14:23:00,85.8,60.1,30.23,East,80,3.0,6.0,42,0.00,CLR,CLR,0.00,WeatherDisplay:10.34,2013-07-17 18:23:00,
2013-07-17 14:28:00,86.0,58.9,30.23,NE,46,4.0,5.0,40,0.00,CLR,CLR,0.00,WeatherDisplay:10.34,2013-07-17 18:28:00,
2013-07-17 14:33:00,86.4,59.9,30.22,SSW,194,4.0,7.0,41,0.00,CLR,CLR,0.00,WeatherDisplay:10.34,2013-07-17 18:33:00,
2013-07-17 14:38:00,86.4,57.8,30.22,WSW,241,7.0,10.0,38,0.00,CLR,CLR,0.00,WeatherDisplay:10.34,2013-07-17 18:38:00,
2013-07-17 14:43:00,86.5,57.9,30.22,SSW,196,3.0,3.0,38,0.00,CLR,CLR,0.00,WeatherDisplay:10.34,2013-07-17 18:43:00,
2013-07-17 14:48:00,86.9,59.0,30.22,SSW,201,3.0,7.0,39,0.00,CLR,CLR,0.00,WeatherDisplay:10.34,2013-07-17 18:48:00,
2013-07-17 14:53:00,86.9,56.0,30.22,South,181,4.0,7.0,35,0.00,CLR,CLR,0.00,WeatherDisplay:10.34,2013-07-17 18:53:00,
2013-07-17 14:58:00,86.9,56.7,30.22,SSE,168,4.0,7.0,36,0.00,CLR,CLR,0.00,WeatherDisplay:10.34,2013-07-17 18:58:00,
2013-07-17 15:03:00,86.9,57.5,30.19,SW,214,5.0,10.0,37,0.00,FEW,FEW,0.00,WeatherDisplay:10.34,2013-07-17 19:03:00,
2013-07-17 15:08:00,87.1,57.7,30.19,SE,135,5.0,7.0,37,0.00,FEW,FEW,0.00,WeatherDisplay:10.34,2013-07-17 19:08:00,
2013-07-17 15:13:00,87.1,58.4,30.19,SW,220,4.0,7.0,38,0.00,FEW,FEW,0.00,WeatherDisplay:10.34,2013-07-17 19:13:00,
2013-07-17 15:18:00,87.3,58.6,30.19,West,267,0.0,9.0,38,0.00,FEW,FEW,0.00,WeatherDisplay:10.34,2013-07-17 19:18:00,
2013-07-17 15:23:00,87.3,58.6,30.19,WSW,237,4.0,8.0,38,0.00,FEW,FEW,0.00,WeatherDisplay:10.34,2013-07-17 19:23:00,
2013-07-17 15:28:00,87.4,57.2,30.19,North,10,3.0,0.0,36,0.00,FEW,FEW,0.00,WeatherDisplay:10.34,2013-07-17 19:28:00,
2013-07-17 15:33:00,87.4,55.6,30.19,SW,227,4.0,0.0,34,0.00,FEW,FEW,0.00,WeatherDisplay:10.34,2013-07-17 19:33:00,
2013-07-17 15:38:00,87.4,56.4,30.19,WSW,253,3.0,6.0,35,0.00,FEW,FEW,0.00,WeatherDisplay:10.34,2013-07-17 19:38:00,
2013-07-17 15:43:00,87.4,54.8,30.19,South,179,6.0,9.0,33,0.00,FEW,FEW,0.00,WeatherDisplay:10.34,2013-07-17 19:43:00,
2013-07-17 15:48:00,87.4,54.8,30.19,NNE,13,4.0,7.0,33,0.00,FEW,FEW,0.00,WeatherDisplay:10.34,2013-07-17 19:48:00,
2013-07-17 15:53:00,87.3,55.5,30.19,South,169,4.0,10.0,34,0.00,FEW,FEW,0.00,WeatherDisplay:10.34,2013-07-17 19:53:00,
2013-07-17 15:58:00,87.4,56.4,30.19,WNW,289,0.0,3.0,35,0.00,FEW,FEW,0.00,WeatherDisplay:10.34,2013-07-17 19:58:00,
2013-07-17 16:03:00,87.3,54.6,30.16,NNE,29,0.0,7.0,33,0.00,SCT,SCT,0.00,WeatherDisplay:10.34,2013-07-17 20:03:00,
2013-07-17 16:08:00,87.3,54.6,30.16,South,172,4.0,9.0,33,0.00,SCT,SCT,0.00,WeatherDisplay:10.34,2013-07-17 20:08:00,
2013-07-17 16:13:00,87.4,54.8,30.16,SW,228,3.0,7.0,33,0.00,SCT,SCT,0.00,WeatherDisplay:10.34,2013-07-17 20:13:00,
2013-07-17 16:18:00,87.4,55.6,30.16,SSE,166,4.0,4.0,34,0.00,SCT,SCT,0.00,WeatherDisplay:10.34,2013-07-17 20:18:00,
2013-07-17 16:23:00,87.4,59.4,30.16,WSW,239,4.0,6.0,39,0.00,SCT,SCT,0.00,WeatherDisplay:10.34,2013-07-17 20:23:00,
2013-07-17 16:28:00,87.4,56.4,30.16,WNW,296,0.0,3.0,35,0.00,SCT,SCT,0.00,WeatherDisplay:10.34,2013-07-17 20:28:00,
2013-07-17 16:33:00,87.6,58.1,30.16,North,351,5.0,7.0,37,0.00,SCT,SCT,0.00,WeatherDisplay:10.34,2013-07-17 20:33:00,
2013-07-17 16:38:00,87.6,56.6,30.16,NNE,33,4.0,6.0,35,0.00,SCT,SCT,0.00,WeatherDisplay:10.34,2013-07-17 20:38:00,
2013-07-17 16:43:00,87.8,56.7,30.16,WSW,239,3.0,7.0,35,0.00,SCT,SCT,0.00,WeatherDisplay:10.34,2013-07-17 20:43:00,
2013-07-17 16:48:00,88.0,54.4,30.16,NW,316,3.0,8.0,32,0.00,SCT,SCT,0.00,WeatherDisplay:10.34,2013-07-17 20:48:00,
2013-07-17 16:53:00,88.3,56.4,30.16,WSW,242,3.0,3.0,34,0.00,SCT,SCT,0.00,WeatherDisplay:10.34,2013-07-17 20:53:00,
2013-07-17 16:58:00,88.3,57.2,30.16,WNW,294,4.0,6.0,35,0.00,SCT,SCT,0.00,WeatherDisplay:10.34,2013-07-17 20:58:00,
2013-07-17 17:03:00,88.2,55.4,30.16,West,277,3.0,7.0,33,0.00,BKN,BKN,0.00,WeatherDisplay:10.34,2013-07-17 21:03:00,
2013-07-17 17:08:00,87.6,58.9,30.16,SSW,210,3.0,5.0,38,0.00,BKN,BKN,0.00,WeatherDisplay:10.34,2013-07-17 21:08:00,
2013-07-17 17:13:00,87.6,60.3,30.16,SW,225,0.0,3.0,40,0.00,BKN,BKN,0.00,WeatherDisplay:10.34,2013-07-17 21:13:00,
2013-07-17 17:18:00,87.3,60.7,30.16,SW,218,3.0,7.0,41,0.00,BKN,BKN,0.00,WeatherDisplay:10.34,2013-07-17 21:18:00,
2013-07-17 17:23:00,87.4,58.0,30.16,West,261,0.0,6.0,37,0.00,BKN,BKN,0.00,WeatherDisplay:10.34,2013-07-17 21:23:00,
2013-07-17 17:28:00,87.4,59.4,30.16,SSE,158,0.0,3.0,39,0.00,BKN,BKN,0.00,WeatherDisplay:10.34,2013-07-17 21:28:00,
2013-07-17 17:33:00,87.6,59.6,30.13,WSW,244,0.0,3.0,39,0.00,BKN,BKN,0.00,WeatherDisplay:10.34,2013-07-17 21:33:00,
2013-07-17 17:38:00,87.8,59.8,30.13,WNW,289,0.0,6.0,39,0.00,BKN,BKN,0.00,WeatherDisplay:10.34,2013-07-17 21:38:00,
2013-07-17 17:43:00,88.0,61.3,30.13,NNW,328,0.0,7.0,41,0.00,BKN,BKN,0.00,WeatherDisplay:10.34,2013-07-17 21:43:00,
2013-07-17 17:48:00,88.2,58.6,30.13,SSW,201,0.0,7.0,37,0.00,BKN,BKN,0.00,WeatherDisplay:10.34,2013-07-17 21:48:00,
2013-07-17 17:53:00,88.2,59.4,30.13,West,274,4.0,6.0,38,0.00,BKN,BKN,0.00,WeatherDisplay:10.34,2013-07-17 21:53:00,
2013-07-17 17:58:00,88.3,60.2,30.13,West,272,0.0,5.0,39,0.00,BKN,BKN,0.00,WeatherDisplay:10.34,2013-07-17 21:58:00,
2013-07-17 18:03:00,88.3,59.5,30.13,SSW,209,4.0,6.0,38,0.00,FEW,FEW,0.00,WeatherDisplay:10.34,2013-07-17 22:03:00,
2013-07-17 18:08:00,88.2,60.8,30.13,SW,218,0.0,5.0,40,0.00,FEW,FEW,0.00,WeatherDisplay:10.34,2013-07-17 22:08:00,
2013-07-17 18:13:00,87.8,61.9,30.13,WNW,291,0.0,0.0,42,0.00,FEW,FEW,0.00,WeatherDisplay:10.34,2013-07-17 22:13:00,
2013-07-17 18:15:00,87.4,60.8,30.13,West,271,4.0,7.0,41,0.00,FEW,FEW,0.00,WeatherDisplay:10.34,2013-07-17 22:15:00,
2013-07-17 18:20:00,87.3,58.6,30.10,South,172,4.0,12.0,38,0.00,FEW,FEW,0.00,WeatherDisplay:10.34,2013-07-17 22:20:00,
2013-07-17 18:25:00,87.1,59.8,30.10,WSW,238,0.0,0.0,40,0.00,FEW,FEW,0.00,WeatherDisplay:10.34,2013-07-17 22:25:00,
2013-07-17 18:30:00,86.5,60.7,30.10,West,265,0.0,5.0,42,0.00,FEW,FEW,0.00,WeatherDisplay:10.34,2013-07-17 22:30:00,
2013-07-17 18:35:00,86.0,61.5,30.13,SSE,156,3.0,3.0,44,0.00,FEW,FEW,0.00,WeatherDisplay:10.34,2013-07-17 22:35:00,
2013-07-17 18:40:00,85.1,60.7,30.13,WSW,249,0.0,3.0,44,0.00,FEW,FEW,0.00,WeatherDisplay:10.34,2013-07-17 22:40:00,
2013-07-17 18:45:00,84.7,61.0,30.14,West,259,0.0,3.0,45,0.00,FEW,FEW,0.00,WeatherDisplay:10.34,2013-07-17 22:45:00,
2013-07-17 18:50:00,84.4,61.9,30.14,West,267,0.0,3.0,47,0.00,FEW,FEW,0.00,WeatherDisplay:10.34,2013-07-17 22:50:00,
2013-07-17 18:55:00,83.7,60.1,30.14,West,261,0.0,0.0,45,0.00,FEW,FEW,0.00,WeatherDisplay:10.34,2013-07-17 22:55:00,
2013-07-17 19:00:00,83.3,62.1,30.14,SSW,208,0.0,3.0,49,0.00,FEW,FEW,0.00,WeatherDisplay:10.34,2013-07-17 23:00:00,
2013-07-17 19:05:00,82.6,61.5,30.14,NNW,331,0.0,0.0,49,0.00,CLR,CLR,0.00,WeatherDisplay:10.34,2013-07-17 23:05:00,
2013-07-17 19:10:00,82.4,61.9,30.14,West,272,0.0,0.0,50,0.00,CLR,CLR,0.00,WeatherDisplay:10.34,2013-07-17 23:10:00,
2013-07-17 19:15:00,82.0,62.1,30.14,WSW,237,0.0,3.0,51,0.00,CLR,CLR,0.00,WeatherDisplay:10.34,2013-07-17 23:15:00,
2013-07-17 19:20:00,81.5,62.2,30.14,WSW,256,0.0,0.0,52,0.00,CLR,CLR,0.00,WeatherDisplay:10.34,2013-07-17 23:20:00,
2013-07-17 19:25:00,81.1,62.9,30.14,NNW,343,0.0,3.0,54,0.00,CLR,CLR,0.00,WeatherDisplay:10.34,2013-07-17 23:25:00,
2013-07-17 19:31:00,81.1,62.4,30.14,ENE,59,3.0,6.0,53,0.00,CLR,CLR,0.00,WeatherDisplay:10.34,2013-07-17 23:31:00,
2013-07-17 19:36:00,81.1,61.3,30.14,NNE,17,3.0,3.0,51,0.00,CLR,CLR,0.00,WeatherDisplay:10.34,2013-07-17 23:36:00,
2013-07-17 19:41:00,81.0,61.7,30.14,NNE,29,3.0,6.0,52,0.00,CLR,CLR,0.00,WeatherDisplay:10.34,2013-07-17 23:41:00,
2013-07-17 19:46:00,81.1,60.7,30.14,NNW,335,3.0,3.0,50,0.00,CLR,CLR,0.00,WeatherDisplay:10.34,2013-07-17 23:46:00,
2013-07-17 19:51:00,81.1,60.7,30.14,NE,36,3.0,3.0,50,0.00,CLR,CLR,0.00,WeatherDisplay:10.34,2013-07-17 23:51:00,
2013-07-17 19:56:00,81.1,60.7,30.14,West,272,3.0,5.0,50,0.00,CLR,CLR,0.00,WeatherDisplay:10.34,2013-07-17 23:56:00,
2013-07-17 20:01:00,81.0,61.1,30.14,North,0,5.0,7.0,51,0.00,CLR,CLR,0.00,WeatherDisplay:10.34,2013-07-18 00:01:00,
2013-07-17 20:06:00,80.6,61.3,30.14,West,273,0.0,3.0,52,0.00,CLR,CLR,0.00,WeatherDisplay:10.34,2013-07-18 00:06:00,
2013-07-17 20:11:00,80.2,61.0,30.14,West,281,0.0,0.0,52,0.00,CLR,CLR,0.00,WeatherDisplay:10.34,2013-07-18 00:11:00,
2013-07-17 20:16:00,79.9,61.2,30.14,WNW,290,0.0,3.0,53,0.00,CLR,CLR,0.00,WeatherDisplay:10.34,2013-07-18 00:16:00,
2013-07-17 20:21:00,79.9,60.7,30.14,WNW,289,3.0,5.0,52,0.00,CLR,CLR,0.00,WeatherDisplay:10.34,2013-07-18 00:21:00,
2013-07-17 20:26:00,80.1,60.8,30.14,SW,235,3.0,6.0,52,0.00,CLR,CLR,0.00,WeatherDisplay:10.34,2013-07-18 00:26:00,
2013-07-17 20:31:00,79.9,60.7,30.14,SW,214,3.0,0.0,52,0.00,CLR,CLR,0.00,WeatherDisplay:10.34,2013-07-18 00:31:00,
2013-07-17 20:36:00,80.1,60.3,30.13,WSW,250,0.0,3.0,51,0.00,CLR,CLR,0.00,WeatherDisplay:10.34,2013-07-18 00:36:00,
2013-07-17 20:41:00,79.9,61.2,30.13,NW,311,3.0,7.0,53,0.00,CLR,CLR,0.00,WeatherDisplay:10.34,2013-07-18 00:41:00,
2013-07-17 20:46:00,79.5,60.9,30.10,WNW,291,0.0,2.0,53,0.00,CLR,CLR,0.00,WeatherDisplay:10.34,2013-07-18 00:46:00,
2013-07-17 20:51:00,79.3,61.8,30.10,West,271,3.0,5.0,55,0.00,CLR,CLR,0.00,WeatherDisplay:10.34,2013-07-18 00:51:00,
2013-07-17 20:56:00,79.2,61.6,30.10,East,83,4.0,7.0,55,0.00,CLR,CLR,0.00,WeatherDisplay:10.34,2013-07-18 00:56:00,
2013-07-17 21:01:00,79.7,60.5,30.13,SW,234,0.0,9.0,52,0.00,CLR,CLR,0.00,WeatherDisplay:10.34,2013-07-18 01:01:00,
2013-07-17 21:06:00,79.9,60.1,30.13,WSW,254,0.0,6.0,51,0.00,FEW,FEW,0.00,WeatherDisplay:10.34,2013-07-18 01:06:00,
2013-07-17 21:11:00,80.2,59.9,30.13,West,265,3.0,7.0,50,0.00,FEW,FEW,0.00,WeatherDisplay:10.34,2013-07-18 01:11:00,
2013-07-17 21:17:00,80.2,59.9,30.13,NNW,331,4.0,4.0,50,0.00,FEW,FEW,0.00,WeatherDisplay:10.34,2013-07-18 01:17:00,
2013-07-17 21:23:00,80.2,61.0,30.13,NE,43,3.0,3.0,52,0.00,FEW,FEW,0.00,WeatherDisplay:10.34,2013-07-18 01:23:00,
2013-07-17 21:28:00,79.3,57.9,30.13,ENE,69,9.0,12.0,48,0.00,FEW,FEW,0.00,WeatherDisplay:10.34,2013-07-18 01:28:00,
2013-07-17 21:33:00,77.7,54.7,30.20,ENE,59,4.0,9.0,45,0.00,FEW,FEW,0.00,WeatherDisplay:10.34,2013-07-18 01:33:00,
2013-07-17 21:38:00,76.5,55.9,30.20,South,169,3.0,6.0,49,0.00,FEW,FEW,0.00,WeatherDisplay:10.34,2013-07-18 01:38:00,
2013-07-17 21:43:00,75.2,58.9,30.20,NNW,329,4.0,7.0,57,0.00,FEW,FEW,0.00,WeatherDisplay:10.34,2013-07-18 01:43:00,
2013-07-17 21:48:00,74.3,61.3,30.20,WSW,251,3.0,5.0,64,0.00,FEW,FEW,0.00,WeatherDisplay:10.34,2013-07-18 01:48:00,
2013-07-17 21:54:00,73.4,63.0,30.20,NE,37,0.0,9.0,70,0.00,FEW,FEW,0.00,WeatherDisplay:10.34,2013-07-18 01:54:00,
2013-07-17 22:01:00,73.0,65.0,30.20,North,351,0.0,0.0,76,0.00,FEW,FEW,0.00,WeatherDisplay:10.34,2013-07-18 02:01:00,
2013-07-17 22:06:00,73.0,65.0,30.20,North,351,0.0,0.0,76,0.00,FEW,FEW,0.00,WeatherDisplay:10.34,2013-07-18 02:06:00,
2013-07-17 22:12:00,73.0,65.0,30.20,North,351,0.0,0.0,76,0.00,FEW,FEW,0.00,WeatherDisplay:10.34,2013-07-18 02:12:00,
2013-07-17 22:18:00,73.0,65.0,30.20,North,351,0.0,0.0,76,0.00,FEW,FEW,0.00,WeatherDisplay:10.34,2013-07-18 02:18:00,
2013-07-17 22:24:00,73.0,65.0,30.20,North,351,0.0,0.0,76,0.00,FEW,FEW,0.00,WeatherDisplay:10.34,2013-07-18 02:24:00,
2013-07-17 22:29:00,73.0,65.0,30.20,North,351,0.0,0.0,76,0.00,FEW,FEW,0.00,WeatherDisplay:10.34,2013-07-18 02:29:00,
2013-07-17 22:34:00,73.0,65.0,30.20,North,351,0.0,0.0,76,0.00,FEW,FEW,0.00,WeatherDisplay:10.34,2013-07-18 02:34:00,
2013-07-17 22:39:00,73.0,65.0,30.20,North,351,0.0,0.0,76,0.00,FEW,FEW,0.00,WeatherDisplay:10.34,2013-07-18 02:39:00,
2013-07-17 22:44:00,73.0,65.0,30.20,North,351,0.0,0.0,76,0.00,FEW,FEW,0.00,WeatherDisplay:10.34,2013-07-18 02:44:00,
2013-07-17 22:49:00,73.0,65.0,30.20,North,351,0.0,0.0,76,0.00,FEW,FEW,0.00,WeatherDisplay:10.34,2013-07-18 02:49:00,
2013-07-17 22:54:00,73.0,65.0,30.20,North,351,0.0,0.0,76,0.00,FEW,FEW,0.00,WeatherDisplay:10.34,2013-07-18 02:54:00,
2013-07-17 22:59:00,73.0,65.0,30.20,North,351,0.0,0.0,76,0.00,FEW,FEW,0.00,WeatherDisplay:10.34,2013-07-18 02:59:00,
2013-07-17 23:04:00,73.0,65.0,30.20,North,351,0.0,0.0,76,0.00,CLR,CLR,0.00,WeatherDisplay:10.34,2013-07-18 03:04:00,
2013-07-17 23:09:00,73.0,65.0,30.20,North,351,0.0,0.0,76,0.00,CLR,CLR,0.00,WeatherDisplay:10.34,2013-07-18 03:09:00,
2013-07-17 23:14:00,73.0,65.0,30.20,North,351,0.0,0.0,76,0.00,CLR,CLR,0.00,WeatherDisplay:10.34,2013-07-18 03:14:00,
2013-07-17 23:19:00,73.0,65.0,30.20,North,351,0.0,0.0,76,0.00,CLR,CLR,0.00,WeatherDisplay:10.34,2013-07-18 03:19:00,
2013-07-17 23:24:00,73.0,65.0,30.20,North,351,0.0,0.0,76,0.00,CLR,CLR,0.00,WeatherDisplay:10.34,2013-07-18 03:24:00,
2013-07-17 23:29:00,73.0,65.0,30.20,North,351,0.0,0.0,76,0.00,CLR,CLR,0.00,WeatherDisplay:10.34,2013-07-18 03:29:00,
2013-07-17 23:34:00,73.0,65.0,30.20,North,351,0.0,0.0,76,0.00,CLR,CLR,0.00,WeatherDisplay:10.34,2013-07-18 03:34:00,
2013-07-17 23:39:00,73.0,65.0,30.20,North,351,0.0,0.0,76,0.00,CLR,CLR,0.00,WeatherDisplay:10.34,2013-07-18 03:39:00,
2013-07-17 23:44:00,73.0,65.0,30.20,North,351,0.0,0.0,76,0.00,CLR,CLR,0.00,WeatherDisplay:10.34,2013-07-18 03:44:00,
2013-07-17 23:49:00,73.0,65.0,30.20,North,351,0.0,0.0,76,0.00,CLR,CLR,0.00,WeatherDisplay:10.34,2013-07-18 03:49:00,
2013-07-17 23:54:00,73.0,65.0,30.20,North,351,0.0,0.0,76,0.00,CLR,CLR,0.00,WeatherDisplay:10.34,2013-07-18 03:54:00,
2013-07-17 23:59:00,73.0,65.0,30.20,North,351,0.0,0.0,76,0.00,CLR,CLR,0.00,WeatherDisplay:10.34,2013-07-18 03:59:00,